Time,TemperatureF,DewpointF,PressureIn,WindDirection,WindDirectionDegrees,WindSpeedMPH,WindSpeedGustMPH,Humidity,HourlyPrecipIn,Conditions,Clouds,dailyrainin,SoftwareType,DateUTC
2013-03-09 00:00:00,28.8,24.7,30.23,SE,125,0.0,0.0,84,-99.99,,,-99.99,VWS V14.01,2013-03-09 05:00:00,
2013-03-09 09:59:00,30.1,26.7,30.38,WSW,253,0.0,0.0,87,-99.99,,,-99.99,VWS V14.01,2013-03-09 14:59:00,
2013-03-09 10:04:00,30.2,26.2,30.38,WSW,253,0.0,0.0,85,-99.99,,,-99.99,VWS V14.01,2013-03-09 15:04:00,
2013-03-09 10:09:00,30.3,26.0,30.38,WSW,253,0.0,0.0,84,-99.99,,,-99.99,VWS V14.01,2013-03-09 15:09:00,
2013-03-09 10:14:00,30.5,26.0,30.38,WSW,253,0.0,0.0,83,-99.99,,,-99.99,VWS V14.01,2013-03-09 15:14:00,
2013-03-09 10:19:00,30.9,26.4,30.38,WSW,253,0.0,0.0,83,-99.99,,,-99.99,VWS V14.01,2013-03-09 15:19:00,
2013-03-09 10:24:00,31.3,26.6,30.38,WSW,253,0.0,0.0,82,-99.99,,,-99.99,VWS V14.01,2013-03-09 15:24:00,
2013-03-09 10:29:00,31.7,26.7,30.37,WSW,253,0.0,0.0,81,-99.99,,,-99.99,VWS V14.01,2013-03-09 15:29:00,
2013-03-09 10:34:00,32.2,26.6,30.37,WSW,253,0.0,0.0,80,-99.99,,,-99.99,VWS V14.01,2013-03-09 15:34:00,
2013-03-09 10:39:00,32.9,26.5,30.37,WSW,253,0.0,0.0,77,-99.99,,,-99.99,VWS V14.01,2013-03-09 15:39:00,
2013-03-09 10:44:00,33.4,26.5,30.37,WSW,253,0.0,0.0,75,-99.99,,,-99.99,VWS V14.01,2013-03-09 15:44:00,
2013-03-09 10:49:00,33.7,26.8,30.36,WSW,253,0.0,0.0,75,-99.99,,,-99.99,VWS V14.01,2013-03-09 15:49:00,
2013-03-09 10:54:00,34.1,27.0,30.37,WSW,253,0.0,0.0,75,-99.99,,,-99.99,VWS V14.01,2013-03-09 15:54:00,
2013-03-09 10:59:00,34.4,27.2,30.37,WSW,253,0.0,0.0,75,-99.99,,,-99.99,VWS V14.01,2013-03-09 15:59:00,
2013-03-09 11:04:00,34.8,26.9,30.36,WSW,253,0.0,0.0,72,-99.99,,,-99.99,VWS V14.01,2013-03-09 16:04:00,
2013-03-09 11:09:00,35.1,26.9,30.36,WSW,253,0.0,0.0,72,-99.99,,,-99.99,VWS V14.01,2013-03-09 16:09:00,
2013-03-09 11:14:00,35.4,27.1,30.35,WSW,253,0.0,0.0,72,-99.99,,,-99.99,VWS V14.01,2013-03-09 16:14:00,
2013-03-09 11:19:00,35.8,27.3,30.35,WSW,253,0.0,0.0,71,-99.99,,,-99.99,VWS V14.01,2013-03-09 16:19:00,
2013-03-09 11:24:00,36.4,27.4,30.35,WSW,253,0.0,0.0,69,-99.99,,,-99.99,VWS V14.01,2013-03-09 16:24:00,
2013-03-09 11:29:00,36.9,27.4,30.35,WSW,253,0.0,0.0,68,-99.99,,,-99.99,VWS V14.01,2013-03-09 16:29:00,
2013-03-09 11:34:00,37.5,27.7,30.35,WSW,253,0.0,0.0,67,-99.99,,,-99.99,VWS V14.01,2013-03-09 16:34:00,
2013-03-09 11:39:00,37.9,28.0,30.35,WSW,253,0.0,0.0,67,-99.99,,,-99.99,VWS V14.01,2013-03-09 16:39:00,
2013-03-09 11:44:00,38.3,28.0,30.35,WSW,253,0.0,0.0,66,-99.99,,,-99.99,VWS V14.01,2013-03-09 16:44:00,
2013-03-09 11:49:00,38.8,28.1,30.34,WSW,253,0.0,0.0,65,-99.99,,,-99.99,VWS V14.01,2013-03-09 16:49:00,
2013-03-09 11:54:00,39.3,27.8,30.34,WSW,253,0.0,0.0,63,-99.99,,,-99.99,VWS V14.01,2013-03-09 16:54:00,
2013-03-09 11:59:00,39.9,27.8,30.34,WSW,253,0.0,0.0,62,-99.99,,,-99.99,VWS V14.01,2013-03-09 16:59:00,
2013-03-09 12:04:00,40.4,28.0,30.34,WSW,253,0.0,0.0,61,-99.99,,,-99.99,VWS V14.01,2013-03-09 17:04:00,
2013-03-09 12:09:00,40.8,28.0,30.34,WSW,253,0.0,0.0,60,-99.99,,,-99.99,VWS V14.01,2013-03-09 17:09:00,
2013-03-09 12:14:00,41.3,28.3,30.33,WSW,253,0.0,0.0,60,-99.99,,,-99.99,VWS V14.01,2013-03-09 17:14:00,
2013-03-09 12:19:00,41.7,28.0,30.33,WSW,253,0.0,0.0,58,-99.99,,,-99.99,VWS V14.01,2013-03-09 17:19:00,
2013-03-09 12:24:00,42.1,28.2,30.33,WSW,253,0.0,0.0,58,-99.99,,,-99.99,VWS V14.01,2013-03-09 17:24:00,
2013-03-09 12:29:00,42.6,28.5,30.33,WSW,253,0.0,0.0,57,-99.99,,,-99.99,VWS V14.01,2013-03-09 17:29:00,
2013-03-09 12:34:00,43.2,28.3,30.32,WSW,253,0.0,0.0,55,-99.99,,,-99.99,VWS V14.01,2013-03-09 17:34:00,
2013-03-09 12:39:00,43.8,28.2,30.32,WSW,253,0.0,0.0,54,-99.99,,,-99.99,VWS V14.01,2013-03-09 17:39:00,
2013-03-09 12:44:00,44.6,28.3,30.32,WSW,253,0.0,0.0,52,-99.99,,,-99.99,VWS V14.01,2013-03-09 17:44:00,
2013-03-09 12:49:00,45.7,29.5,30.31,WSW,253,0.0,0.0,53,-99.99,,,-99.99,VWS V14.01,2013-03-09 17:49:00,
2013-03-09 12:54:00,46.7,29.4,30.31,WSW,253,0.0,0.0,51,-99.99,,,-99.99,VWS V14.01,2013-03-09 17:54:00,
2013-03-09 12:59:00,47.8,30.2,30.31,WSW,253,0.0,0.0,50,-99.99,,,-99.99,VWS V14.01,2013-03-09 17:59:00,
2013-03-09 13:04:00,48.7,30.2,30.31,WSW,253,0.0,0.0,48,-99.99,,,-99.99,VWS V14.01,2013-03-09 18:04:00,
2013-03-09 13:09:00,49.1,29.7,30.31,WSW,253,0.0,0.0,47,-99.99,,,-99.99,VWS V14.01,2013-03-09 18:09:00,
2013-03-09 13:14:00,49.6,30.1,30.31,WSW,253,0.0,0.0,47,-99.99,,,-99.99,VWS V14.01,2013-03-09 18:14:00,
2013-03-09 13:19:00,49.9,29.7,30.31,WSW,253,0.0,0.0,46,-99.99,,,-99.99,VWS V14.01,2013-03-09 18:19:00,
2013-03-09 13:24:00,50.1,29.4,30.31,WSW,253,0.0,0.0,45,-99.99,,,-99.99,VWS V14.01,2013-03-09 18:24:00,
2013-03-09 13:29:00,50.6,30.9,30.30,WSW,253,0.0,0.0,46,-99.99,,,-99.99,VWS V14.01,2013-03-09 18:29:00,
2013-03-09 13:34:00,50.7,29.5,30.30,WSW,253,0.0,0.0,44,-99.99,,,-99.99,VWS V14.01,2013-03-09 18:34:00,
2013-03-09 13:39:00,50.6,28.5,30.30,WSW,253,0.0,0.0,42,-99.99,,,-99.99,VWS V14.01,2013-03-09 18:39:00,
2013-03-09 13:44:00,50.6,29.9,30.30,WSW,253,0.0,0.0,45,-99.99,,,-99.99,VWS V14.01,2013-03-09 18:44:00,
2013-03-09 13:49:00,50.5,29.7,30.30,WSW,253,0.0,0.0,44,-99.99,,,-99.99,VWS V14.01,2013-03-09 18:49:00,
2013-03-09 13:54:00,50.5,29.6,30.30,WSW,253,0.0,0.0,44,-99.99,,,-99.99,VWS V14.01,2013-03-09 18:54:00,
2013-03-09 13:59:00,50.9,29.5,30.29,WSW,253,0.0,0.0,44,-99.99,,,-99.99,VWS V14.01,2013-03-09 18:59:00,
2013-03-09 14:04:00,51.0,29.2,30.29,WSW,253,0.0,0.0,43,-99.99,,,-99.99,VWS V14.01,2013-03-09 19:04:00,
2013-03-09 14:09:00,51.2,29.3,30.29,WSW,253,0.0,0.0,43,-99.99,,,-99.99,VWS V14.01,2013-03-09 19:09:00,
2013-03-09 14:14:00,51.1,27.7,30.28,East,82,0.0,0.0,40,-99.99,,,-99.99,VWS V14.01,2013-03-09 19:14:00,
2013-03-09 14:19:00,51.3,27.9,30.28,East,82,0.0,0.0,40,-99.99,,,-99.99,VWS V14.01,2013-03-09 19:19:00,
2013-03-09 14:24:00,51.2,27.7,30.28,East,82,0.0,0.0,40,-99.99,,,-99.99,VWS V14.01,2013-03-09 19:24:00,
2013-03-09 14:29:00,51.3,27.4,30.28,ESE,108,0.0,0.0,39,-99.99,,,-99.99,VWS V14.01,2013-03-09 19:29:00,
2013-03-09 14:34:00,51.6,27.0,30.28,ESE,108,0.0,0.0,38,-99.99,,,-99.99,VWS V14.01,2013-03-09 19:34:00,
2013-03-09 14:39:00,51.8,27.2,30.28,ESE,108,0.0,0.0,38,-99.99,,,-99.99,VWS V14.01,2013-03-09 19:39:00,
2013-03-09 14:44:00,52.0,27.1,30.28,East,86,0.0,0.0,38,-99.99,,,-99.99,VWS V14.01,2013-03-09 19:44:00,
2013-03-09 14:49:00,52.3,27.3,30.28,East,86,0.0,0.0,38,-99.99,,,-99.99,VWS V14.01,2013-03-09 19:49:00,
2013-03-09 14:54:00,52.7,28.1,30.27,East,86,0.0,0.0,38,-99.99,,,-99.99,VWS V14.01,2013-03-09 19:54:00,
2013-03-09 14:59:00,52.7,27.8,30.27,East,86,0.0,0.0,38,-99.99,,,-99.99,VWS V14.01,2013-03-09 19:59:00,
2013-03-09 15:04:00,53.0,28.4,30.27,East,86,0.0,0.0,38,-99.99,,,-99.99,VWS V14.01,2013-03-09 20:04:00,
2013-03-09 15:09:00,53.2,27.5,30.27,East,86,0.0,0.0,37,-99.99,,,-99.99,VWS V14.01,2013-03-09 20:09:00,
2013-03-09 15:14:00,53.4,27.3,30.27,ESE,121,0.0,0.0,36,-99.99,,,-99.99,VWS V14.01,2013-03-09 20:14:00,
2013-03-09 15:19:00,54.0,27.9,30.27,ESE,121,0.0,0.0,36,-99.99,,,-99.99,VWS V14.01,2013-03-09 20:19:00,
2013-03-09 15:24:00,54.3,27.7,30.27,ESE,121,0.0,0.0,36,-99.99,,,-99.99,VWS V14.01,2013-03-09 20:24:00,
2013-03-09 15:29:00,54.6,27.5,30.27,ESE,121,0.0,0.0,35,-99.99,,,-99.99,VWS V14.01,2013-03-09 20:29:00,
2013-03-09 15:34:00,54.7,28.5,30.27,ESE,121,0.0,0.0,36,-99.99,,,-99.99,VWS V14.01,2013-03-09 20:34:00,
2013-03-09 15:39:00,54.7,26.8,30.27,ESE,121,0.0,0.0,34,-99.99,,,-99.99,VWS V14.01,2013-03-09 20:39:00,
2013-03-09 15:44:00,54.4,27.5,30.27,ESE,121,0.0,0.0,35,-99.99,,,-99.99,VWS V14.01,2013-03-09 20:44:00,
2013-03-09 15:49:00,54.2,26.5,30.26,SE,125,0.0,0.0,34,-99.99,,,-99.99,VWS V14.01,2013-03-09 20:49:00,
2013-03-09 15:54:00,54.0,27.1,30.26,SE,125,0.0,0.0,35,-99.99,,,-99.99,VWS V14.01,2013-03-09 20:54:00,
2013-03-09 15:59:00,54.1,26.7,30.26,SE,125,0.0,0.0,34,-99.99,,,-99.99,VWS V14.01,2013-03-09 20:59:00,
2013-03-09 16:04:00,54.2,28.2,30.26,SE,125,0.0,0.0,36,-99.99,,,-99.99,VWS V14.01,2013-03-09 21:04:00,
2013-03-09 16:09:00,54.3,26.9,30.26,SE,125,0.0,0.0,34,-99.99,,,-99.99,VWS V14.01,2013-03-09 21:09:00,
2013-03-09 16:14:00,54.7,26.0,30.26,SE,125,0.0,0.0,33,-99.99,,,-99.99,VWS V14.01,2013-03-09 21:14:00,
2013-03-09 16:19:00,54.7,26.2,30.26,SE,125,0.0,0.0,33,-99.99,,,-99.99,VWS V14.01,2013-03-09 21:19:00,
2013-03-09 16:24:00,54.6,25.6,30.26,SE,125,0.0,0.0,32,-99.99,,,-99.99,VWS V14.01,2013-03-09 21:24:00,
2013-03-09 16:29:00,54.7,25.9,30.26,SE,125,0.0,0.0,33,-99.99,,,-99.99,VWS V14.01,2013-03-09 21:29:00,
2013-03-09 16:34:00,54.8,26.3,30.26,SE,125,0.0,0.0,33,-99.99,,,-99.99,VWS V14.01,2013-03-09 21:34:00,
2013-03-09 16:38:00,55.0,26.8,30.26,SE,125,0.0,0.0,34,-99.99,,,-99.99,VWS V14.01,2013-03-09 21:38:00,
2013-03-09 16:44:00,55.2,26.5,30.25,SE,125,0.0,0.0,33,-99.99,,,-99.99,VWS V14.01,2013-03-09 21:44:00,
2013-03-09 16:49:00,55.1,25.7,30.25,SE,125,0.0,0.0,32,-99.99,,,-99.99,VWS V14.01,2013-03-09 21:49:00,
2013-03-09 16:53:00,55.0,26.8,30.25,SE,125,0.0,0.0,34,-99.99,,,-99.99,VWS V14.01,2013-03-09 21:53:00,
2013-03-09 16:58:00,54.7,26.8,30.25,SE,125,0.0,0.0,34,-99.99,,,-99.99,VWS V14.01,2013-03-09 21:58:00,
2013-03-09 17:03:00,54.6,28.1,30.24,SE,125,0.0,0.0,36,-99.99,,,-99.99,VWS V14.01,2013-03-09 22:03:00,
2013-03-09 17:08:00,54.4,27.8,30.24,SE,125,0.0,0.0,36,-99.99,,,-99.99,VWS V14.01,2013-03-09 22:08:00,
2013-03-09 17:13:00,54.0,28.5,30.24,SE,125,0.0,0.0,37,-99.99,,,-99.99,VWS V14.01,2013-03-09 22:13:00,
2013-03-09 17:18:00,53.7,28.9,30.24,SE,125,0.0,0.0,38,-99.99,,,-99.99,VWS V14.01,2013-03-09 22:18:00,
2013-03-09 17:23:00,53.2,28.8,30.24,SE,125,0.0,0.0,39,-99.99,,,-99.99,VWS V14.01,2013-03-09 22:23:00,
2013-03-09 17:28:00,52.9,29.2,30.24,SE,125,0.0,0.0,40,-99.99,,,-99.99,VWS V14.01,2013-03-09 22:28:00,
2013-03-09 17:33:00,52.4,28.8,30.24,SE,125,0.0,0.0,40,-99.99,,,-99.99,VWS V14.01,2013-03-09 22:33:00,
2013-03-09 17:38:00,52.0,29.5,30.24,SE,125,0.0,0.0,42,-99.99,,,-99.99,VWS V14.01,2013-03-09 22:38:00,
2013-03-09 17:43:00,51.5,29.2,30.24,SE,125,0.0,0.0,42,-99.99,,,-99.99,VWS V14.01,2013-03-09 22:43:00,
2013-03-09 17:48:00,51.1,29.4,30.24,SE,125,0.0,0.0,43,-99.99,,,-99.99,VWS V14.01,2013-03-09 22:48:00,
2013-03-09 17:53:00,50.8,29.9,30.24,SE,125,0.0,0.0,44,-99.99,,,-99.99,VWS V14.01,2013-03-09 22:53:00,
2013-03-09 17:58:00,50.4,29.9,30.25,SE,125,0.0,0.0,45,-99.99,,,-99.99,VWS V14.01,2013-03-09 22:58:00,
2013-03-09 18:03:00,50.2,30.4,30.25,SE,125,0.0,0.0,46,-99.99,,,-99.99,VWS V14.01,2013-03-09 23:03:00,
2013-03-09 18:08:00,49.8,30.5,30.25,SE,125,0.0,0.0,47,-99.99,,,-99.99,VWS V14.01,2013-03-09 23:08:00,
2013-03-09 18:13:00,49.2,31.0,30.25,SE,125,0.0,0.0,49,-99.99,,,-99.99,VWS V14.01,2013-03-09 23:13:00,
2013-03-09 18:18:00,48.5,31.2,30.25,SE,125,0.0,0.0,51,-99.99,,,-99.99,VWS V14.01,2013-03-09 23:18:00,
2013-03-09 18:23:00,47.7,31.1,30.26,SE,125,0.0,0.0,52,-99.99,,,-99.99,VWS V14.01,2013-03-09 23:23:00,
2013-03-09 18:28:00,46.8,30.9,30.26,SE,125,0.0,0.0,54,-99.99,,,-99.99,VWS V14.01,2013-03-09 23:28:00,
2013-03-09 18:33:00,45.9,30.8,30.26,SE,125,0.0,0.0,55,-99.99,,,-99.99,VWS V14.01,2013-03-09 23:33:00,
2013-03-09 18:38:00,45.1,30.6,30.26,SE,125,0.0,0.0,57,-99.99,,,-99.99,VWS V14.01,2013-03-09 23:38:00,
2013-03-09 18:43:00,44.7,30.6,30.25,SE,125,0.0,0.0,57,-99.99,,,-99.99,VWS V14.01,2013-03-09 23:43:00,
2013-03-09 18:48:00,44.4,30.6,30.25,SE,125,0.0,0.0,58,-99.99,,,-99.99,VWS V14.01,2013-03-09 23:48:00,
2013-03-09 18:53:00,43.7,30.7,30.26,SE,125,0.0,0.0,60,-99.99,,,-99.99,VWS V14.01,2013-03-09 23:53:00,
2013-03-09 18:58:00,42.8,30.1,30.26,SE,125,0.0,0.0,60,-99.99,,,-99.99,VWS V14.01,2013-03-09 23:58:00,
2013-03-09 19:03:00,42.3,29.7,30.26,SE,125,0.0,0.0,61,-99.99,,,-99.99,VWS V14.01,2013-03-10 00:03:00,
2013-03-09 19:08:00,42.1,29.8,30.26,SE,125,0.0,0.0,61,-99.99,,,-99.99,VWS V14.01,2013-03-10 00:08:00,
2013-03-09 19:13:00,41.9,30.0,30.26,SE,125,0.0,0.0,62,-99.99,,,-99.99,VWS V14.01,2013-03-10 00:13:00,
2013-03-09 19:18:00,41.5,29.8,30.25,SE,125,0.0,0.0,63,-99.99,,,-99.99,VWS V14.01,2013-03-10 00:18:00,
2013-03-09 19:23:00,41.1,29.6,30.24,SE,125,0.0,0.0,63,-99.99,,,-99.99,VWS V14.01,2013-03-10 00:23:00,
2013-03-09 19:28:00,40.9,28.1,30.24,SE,125,0.0,0.0,60,-99.99,,,-99.99,VWS V14.01,2013-03-10 00:28:00,
2013-03-09 19:33:00,40.7,28.2,30.24,SE,125,0.0,0.0,61,-99.99,,,-99.99,VWS V14.01,2013-03-10 00:33:00,
2013-03-09 19:38:00,40.4,28.5,30.24,SE,125,0.0,0.0,62,-99.99,,,-99.99,VWS V14.01,2013-03-10 00:38:00,
2013-03-09 19:43:00,39.9,28.0,30.24,SE,125,0.0,0.0,62,-99.99,,,-99.99,VWS V14.01,2013-03-10 00:43:00,
2013-03-09 19:48:00,39.5,27.9,30.24,SE,125,0.0,0.0,63,-99.99,,,-99.99,VWS V14.01,2013-03-10 00:48:00,
2013-03-09 19:53:00,39.2,27.6,30.24,SE,125,0.0,0.0,63,-99.99,,,-99.99,VWS V14.01,2013-03-10 00:53:00,
2013-03-09 19:58:00,38.9,27.7,30.24,SE,125,0.0,0.0,64,-99.99,,,-99.99,VWS V14.01,2013-03-10 00:58:00,
2013-03-09 20:03:00,38.5,27.6,30.24,SE,125,0.0,0.0,64,-99.99,,,-99.99,VWS V14.01,2013-03-10 01:03:00,
2013-03-09 20:08:00,38.2,27.5,30.25,SE,125,0.0,0.0,65,-99.99,,,-99.99,VWS V14.01,2013-03-10 01:08:00,
2013-03-09 20:13:00,38.0,27.7,30.25,SE,125,0.0,0.0,66,-99.99,,,-99.99,VWS V14.01,2013-03-10 01:13:00,
2013-03-09 20:18:00,37.8,27.9,30.24,SE,125,0.0,0.0,67,-99.99,,,-99.99,VWS V14.01,2013-03-10 01:18:00,
2013-03-09 20:23:00,37.6,27.7,30.25,SE,125,0.0,0.0,67,-99.99,,,-99.99,VWS V14.01,2013-03-10 01:23:00,
2013-03-09 20:28:00,37.4,27.5,30.25,SE,125,0.0,0.0,67,-99.99,,,-99.99,VWS V14.01,2013-03-10 01:28:00,
2013-03-09 20:33:00,37.4,27.5,30.24,SE,125,0.0,0.0,67,-99.99,,,-99.99,VWS V14.01,2013-03-10 01:33:00,
2013-03-09 20:38:00,37.2,27.3,30.24,SE,125,0.0,0.0,67,-99.99,,,-99.99,VWS V14.01,2013-03-10 01:38:00,
2013-03-09 20:43:00,36.9,27.1,30.24,SE,125,0.0,0.0,67,-99.99,,,-99.99,VWS V14.01,2013-03-10 01:43:00,
2013-03-09 20:48:00,36.7,27.7,30.24,SE,125,0.0,0.0,70,-99.99,,,-99.99,VWS V14.01,2013-03-10 01:48:00,
2013-03-09 20:53:00,36.5,28.9,30.25,SE,125,0.0,0.0,74,-99.99,,,-99.99,VWS V14.01,2013-03-10 01:53:00,
2013-03-09 20:58:00,34.3,27.0,30.25,SE,125,0.0,0.0,74,-99.99,,,-99.99,VWS V14.01,2013-03-10 01:58:00,
2013-03-09 21:03:00,34.0,27.0,30.25,SE,125,0.0,0.0,75,-99.99,,,-99.99,VWS V14.01,2013-03-10 02:03:00,
2013-03-09 21:08:00,33.6,27.1,30.25,SE,125,0.0,0.0,77,-99.99,,,-99.99,VWS V14.01,2013-03-10 02:08:00,
2013-03-09 21:13:00,33.5,27.2,30.25,SE,125,0.0,0.0,77,-99.99,,,-99.99,VWS V14.01,2013-03-10 02:13:00,
2013-03-09 21:18:00,33.4,27.1,30.25,SE,125,0.0,0.0,77,-99.99,,,-99.99,VWS V14.01,2013-03-10 02:18:00,
2013-03-09 21:23:00,33.3,26.5,30.25,SE,125,0.0,0.0,76,-99.99,,,-99.99,VWS V14.01,2013-03-10 02:23:00,
2013-03-09 21:28:00,33.1,26.2,30.25,SE,125,0.0,0.0,76,-99.99,,,-99.99,VWS V14.01,2013-03-10 02:28:00,
2013-03-09 21:33:00,33.0,26.2,30.25,SE,125,0.0,0.0,76,-99.99,,,-99.99,VWS V14.01,2013-03-10 02:33:00,
2013-03-09 21:38:00,33.2,26.1,30.25,SE,125,0.0,0.0,75,-99.99,,,-99.99,VWS V14.01,2013-03-10 02:38:00,
2013-03-09 21:43:00,33.1,26.0,30.25,SE,125,0.0,0.0,75,-99.99,,,-99.99,VWS V14.01,2013-03-10 02:43:00,
2013-03-09 21:48:00,32.8,26.0,30.25,SE,125,0.0,0.0,76,-99.99,,,-99.99,VWS V14.01,2013-03-10 02:48:00,
2013-03-09 21:53:00,32.6,25.9,30.25,SE,125,0.0,0.0,76,-99.99,,,-99.99,VWS V14.01,2013-03-10 02:53:00,
2013-03-09 21:58:00,32.3,25.8,30.25,SE,125,0.0,0.0,76,-99.99,,,-99.99,VWS V14.01,2013-03-10 02:58:00,
2013-03-09 22:03:00,32.2,25.8,30.26,SE,125,0.0,0.0,77,-99.99,,,-99.99,VWS V14.01,2013-03-10 03:03:00,
2013-03-09 22:08:00,32.0,25.6,30.25,SE,125,0.0,0.0,77,-99.99,,,-99.99,VWS V14.01,2013-03-10 03:08:00,
2013-03-09 22:13:00,31.9,25.6,30.26,SE,125,0.0,0.0,77,-99.99,,,-99.99,VWS V14.01,2013-03-10 03:13:00,
2013-03-09 22:18:00,31.7,25.5,30.26,SE,125,0.0,0.0,77,-99.99,,,-99.99,VWS V14.01,2013-03-10 03:18:00,
2013-03-09 22:23:00,31.6,25.5,30.26,SE,125,0.0,0.0,78,-99.99,,,-99.99,VWS V14.01,2013-03-10 03:23:00,
2013-03-09 22:28:00,31.5,25.4,30.26,SE,125,0.0,0.0,78,-99.99,,,-99.99,VWS V14.01,2013-03-10 03:28:00,
2013-03-09 22:33:00,31.4,25.4,30.25,SE,125,0.0,0.0,78,-99.99,,,-99.99,VWS V14.01,2013-03-10 03:33:00,
2013-03-09 22:38:00,31.2,25.2,30.25,SE,125,0.0,0.0,78,-99.99,,,-99.99,VWS V14.01,2013-03-10 03:38:00,
2013-03-09 22:42:00,31.0,25.2,30.25,SE,125,0.0,0.0,79,-99.99,,,-99.99,VWS V14.01,2013-03-10 03:42:00,
2013-03-09 22:47:00,30.7,25.0,30.25,SE,125,0.0,0.0,79,-99.99,,,-99.99,VWS V14.01,2013-03-10 03:47:00,
2013-03-09 22:52:00,30.6,25.1,30.24,SE,125,0.0,0.0,80,-99.99,,,-99.99,VWS V14.01,2013-03-10 03:52:00,
2013-03-09 22:57:00,30.4,25.0,30.24,SE,125,0.0,0.0,80,-99.99,,,-99.99,VWS V14.01,2013-03-10 03:57:00,
2013-03-09 23:02:00,30.2,25.0,30.24,SE,125,0.0,0.0,81,-99.99,,,-99.99,VWS V14.01,2013-03-10 04:02:00,
2013-03-09 23:07:00,30.2,25.1,30.24,SE,125,0.0,0.0,81,-99.99,,,-99.99,VWS V14.01,2013-03-10 04:07:00,
2013-03-09 23:12:00,30.1,25.0,30.24,SE,125,0.0,0.0,81,-99.99,,,-99.99,VWS V14.01,2013-03-10 04:12:00,
2013-03-09 23:17:00,29.9,24.9,30.24,SE,125,0.0,0.0,81,-99.99,,,-99.99,VWS V14.01,2013-03-10 04:17:00,
2013-03-09 23:22:00,29.8,24.8,30.24,SE,125,0.0,0.0,82,-99.99,,,-99.99,VWS V14.01,2013-03-10 04:22:00,
2013-03-09 23:27:00,29.7,24.8,30.24,SE,125,0.0,0.0,82,-99.99,,,-99.99,VWS V14.01,2013-03-10 04:27:00,
2013-03-09 23:32:00,29.5,24.8,30.24,SE,125,0.0,0.0,82,-99.99,,,-99.99,VWS V14.01,2013-03-10 04:32:00,
2013-03-09 23:37:00,29.3,24.7,30.24,SE,125,0.0,0.0,83,-99.99,,,-99.99,VWS V14.01,2013-03-10 04:37:00,
2013-03-09 23:42:00,29.3,24.8,30.24,SE,125,0.0,0.0,83,-99.99,,,-99.99,VWS V14.01,2013-03-10 04:42:00,
2013-03-09 23:47:00,29.2,24.8,30.24,SE,125,0.0,0.0,83,-99.99,,,-99.99,VWS V14.01,2013-03-10 04:47:00,
2013-03-09 23:52:00,29.0,24.7,30.24,SE,125,0.0,0.0,84,-99.99,,,-99.99,VWS V14.01,2013-03-10 04:52:00,
2013-03-09 23:57:00,28.8,24.6,30.24,SE,125,0.0,0.0,84,-99.99,,,-99.99,VWS V14.01,2013-03-10 04:57:00,